Theta_e
312 312 311 312 314 314 312 313 312 312 312 314 316 316 318 320 321 322 322 320 318 321 323 324 324 324 323 321 320 319 311 311 316 318 319 321 323 328 329 330 330 330 333 338 337
317 313 311 311 313 314 312 312 313 312 313 312 312 316 317 319 321 323 324 320 317 321 321 322 322 323 324 321 319 313 309 314 314 317 318 320 323 324 329 330 330 331 337 337 333
318 316 312 310 312 314 313 312 314 312 314 313 312 313 316 317 320 322 321 317 317 321 322 322 322 323 322 321 319 313 312 312 318 319 319 322 324 326 326 326 329 330 330 330 330
316 318 313 311 311 313 312 312 314 313 315 315 314 313 314 316 323 323 320 321 321 321 321 321 322 321 319 320 321 319 316 316 320 320 323 323 325 324 327 329 329 328 328 328 327
314 316 318 312 310 312 311 313 314 314 316 317 316 314 315 321 322 321 318 321 321 321 321 321 321 320 319 319 319 317 320 318 321 321 323 325 324 325 328 328 328 328 328 327 326
311 313 316 316 312 310 311 315 315 315 316 316 315 314 317 320 321 320 321 320 321 320 320 320 321 321 320 321 318 320 321 320 320 321 322 323 325 328 328 328 328 327 326 326 326
310 311 314 317 312 312 312 315 317 316 316 316 316 315 316 321 321 321 321 322 321 320 320 320 321 321 321 320 322 322 321 317 320 321 321 325 321 323 328 328 328 327 327 327 327
310 310 311 315 317 313 314 316 317 316 317 316 317 316 318 323 322 321 321 321 321 320 320 321 321 320 321 322 320 319 316 318 318 320 322 321 320 322 328 328 328 328 328 327 328
310 310 310 312 316 313 315 318 319 317 317 318 317 317 319 324 323 320 321 321 321 321 320 321 321 321 321 318 317 316 321 320 319 319 321 321 322 322 325 327 328 328 328 328 328
310 310 310 311 315 314 320 322 323 322 319 318 317 321 323 323 321 321 321 320 321 321 322 321 321 317 315 317 320 321 319 319 319 320 320 321 323 322 323 325 327 328 328 328 327
311 310 310 310 313 316 320 322 321 322 320 320 319 320 321 324 321 320 320 320 320 320 319 321 319 319 319 318 320 319 319 320 320 321 321 319 320 320 323 323 324 327 328 328 327
314 312 310 310 311 317 320 319 319 319 320 320 320 320 321 322 322 321 321 320 320 318 319 316 319 319 319 318 319 319 320 320 320 318 320 319 320 318 320 322 322 326 328 328 326
313 315 312 310 311 317 319 319 319 320 319 320 320 320 321 322 323 324 320 320 319 318 318 317 318 320 319 319 319 320 319 320 320 317 317 317 316 316 322 323 321 325 328 326 326
313 313 315 313 312 316 317 318 320 320 314 318 321 321 321 323 322 322 322 320 318 319 318 316 318 320 319 321 318 318 318 318 318 317 319 315 315 315 324 324 321 325 324 324 324
312 313 314 314 315 311 315 319 320 321 313 320 322 322 323 321 321 320 322 320 318 318 318 319 319 319 319 320 317 318 316 316 317 314 316 317 315 315 325 326 324 323 325 325 323
309 309 309 313 316 312 318 320 320 318 318 324 322 319 318 320 321 320 321 321 319 318 317 317 318 319 318 317 317 316 318 317 315 314 319 318 319 318 325 324 324 324 324 325 322
308 308 311 312 315 314 315 320 316 321 320 326 322 318 318 319 320 320 320 319 317 318 319 320 319 317 317 317 316 315 316 317 318 320 321 318 322 319 323 324 323 323 325 323 322
308 309 313 314 315 316 316 316 320 319 322 324 324 319 319 319 319 320 319 319 318 318 316 318 319 317 316 315 316 315 314 317 317 316 316 319 328 325 323 325 325 324 322 322 322
308 312 317 317 317 316 318 317 317 318 322 324 323 320 320 320 320 320 319 319 318 316 319 321 321 316 316 316 315 320 320 316 318 320 320 319 326 324 324 322 322 322 322 322 322
308 313 316 317 317 316 316 317 318 321 323 322 323 323 323 321 320 317 317 319 321 317 318 320 322 320 316 315 314 320 320 322 320 323 325 321 324 324 324 323 320 321 323 322 320
308 314 316 316 316 318 316 317 321 322 323 324 324 324 323 323 320 319 320 320 321 317 317 317 317 319 317 316 314 314 315 319 320 319 319 318 320 318 322 321 320 321 323 321 318
308 309 315 317 318 316 317 321 322 323 323 323 323 323 323 322 321 321 322 322 320 316 316 316 314 318 317 317 316 315 314 318 320 321 317 317 319 319 319 320 321 322 321 320 318
309 310 315 317 316 314 314 317 320 322 324 325 324 323 322 320 320 321 322 320 319 317 318 317 314 315 314 311 317 318 316 316 316 316 321 320 322 319 320 320 321 321 320 319 319
309 308 312 312 310 310 312 316 317 318 323 324 324 323 321 319 318 319 321 320 320 321 319 318 313 315 318 314 316 318 319 318 316 317 318 319 320 320 321 319 318 318 319 319 320
310 310 309 308 310 309 310 314 316 318 317 322 322 323 322 322 320 320 320 319 319 320 316 314 318 318 317 318 320 320 320 320 317 316 317 317 318 318 319 317 317 318 318 319 318
309 308 308 308 309 308 310 314 316 315 315 317 321 323 322 321 321 322 319 318 318 319 316 312 316 318 319 320 321 322 321 321 320 319 316 317 322 318 317 318 317 318 319 318 318
307 306 307 308 307 307 309 309 311 312 314 314 319 324 323 321 320 320 317 317 317 316 315 316 316 317 320 322 320 316 317 320 319 321 320 319 319 316 315 316 316 317 318 317 318
Wind_Speed
28 25 20 13 11 10 9 8 6 6 5 4 4 3 2 2 4 7 6 3 3 5 3 3 4 5 4 1 2 2 5 1 3 3 4 9 21 31 26 36 30 19 20 16 26
29 28 25 17 12 10 9 7 7 6 5 5 4 4 4 5 7 9 4 2 3 3 2 5 6 5 1 1 2 4 3 6 5 1 3 9 18 13 16 29 26 30 34 37 27
29 30 28 21 14 11 9 7 6 6 5 5 5 5 5 5 5 5 2 4 7 2 4 9 7 5 1 2 4 4 5 5 4 6 8 13 13 9 26 9 25 32 35 32 27
28 29 29 25 17 12 10 7 6 5 4 5 5 5 4 3 3 4 6 8 5 2 7 10 7 2 1 2 1 2 7 7 5 5 6 7 13 6 21 21 32 33 32 28 22
26 27 29 27 20 13 10 7 5 4 3 5 4 3 1 2 2 2 7 4 3 5 7 11 7 3 1 2 4 4 3 9 8 8 15 22 11 15 25 26 27 25 22 17 15
24 25 26 26 21 15 9 7 5 4 4 5 3 1 2 2 4 8 9 6 5 7 4 7 5 6 0 2 2 4 1 6 7 8 10 11 14 11 19 26 24 22 19 16 15
24 23 24 25 22 15 9 6 6 5 5 5 3 3 6 6 4 3 3 1 2 5 3 3 6 6 6 5 9 2 2 4 2 5 5 27 3 6 31 27 25 21 19 18 18
25 23 22 23 22 15 9 7 6 5 5 2 3 4 5 3 7 6 5 6 7 5 2 4 7 8 3 5 5 4 5 4 4 6 4 9 6 4 29 29 25 23 20 18 16
25 24 23 22 22 15 8 6 6 4 5 4 3 3 5 5 8 3 7 2 3 5 5 5 5 1 0 4 5 7 1 3 7 12 4 4 5 5 28 26 26 24 23 19 16
27 25 23 22 21 14 6 5 5 3 3 2 5 3 2 1 5 8 5 4 2 2 3 2 1 3 4 4 2 3 1 4 5 4 5 4 5 2 19 24 26 25 24 21 16
28 27 23 20 19 11 8 2 8 2 10 12 11 11 17 1 8 8 8 3 5 4 1 2 3 3 4 6 4 3 2 3 4 2 4 5 4 8 18 16 18 24 23 20 14
28 28 25 20 18 8 8 8 13 13 12 16 17 21 19 16 7 7 9 5 2 2 1 5 3 8 4 4 2 4 2 4 2 6 3 3 4 3 1 8 16 27 25 20 14
29 27 25 21 16 5 7 3 17 12 5 12 17 18 21 13 14 19 12 4 2 1 0 5 5 4 5 3 5 4 5 2 0 5 4 4 7 4 4 4 11 20 22 17 15
28 27 25 22 11 7 6 9 10 8 4 7 4 7 13 9 4 15 13 6 2 1 2 2 4 2 1 2 5 4 3 3 3 4 3 4 5 4 5 4 3 21 16 9 7
26 24 25 19 20 16 11 7 7 2 3 3 3 8 16 15 8 5 14 9 5 4 5 5 3 1 2 4 4 5 2 2 2 4 2 2 3 5 3 3 1 2 7 5 5
29 25 29 20 19 13 6 4 2 5 6 4 7 6 7 10 5 9 7 4 4 3 1 6 3 2 6 2 2 4 4 7 5 3 3 3 3 4 4 6 3 4 6 3 3
33 31 28 24 17 8 9 2 4 3 5 3 3 5 8 6 4 7 6 4 5 3 2 3 2 2 5 3 4 6 6 3 4 4 5 2 2 6 5 5 6 5 3 3 1
36 36 20 13 12 13 6 4 4 4 6 5 4 2 9 6 6 6 6 4 4 3 3 4 6 4 3 5 7 4 7 5 5 2 5 5 3 5 3 7 6 9 7 2 1
37 30 18 19 7 18 13 2 8 6 4 5 8 3 4 4 6 5 8 8 9 8 7 5 4 0 4 4 7 3 2 4 7 3 2 3 4 6 1 3 8 10 6 4 1
38 26 23 17 5 18 4 5 5 4 4 4 3 3 6 6 2 7 9 7 6 10 9 7 3 2 2 4 5 4 7 3 3 3 4 4 3 5 7 9 9 8 10 2 3
28 11 21 7 14 5 4 5 3 7 14 6 5 5 5 4 7 5 5 5 8 5 6 5 4 3 3 3 7 2 1 5 4 5 5 2 5 7 10 11 10 16 10 2 1
14 4 14 5 2 2 1 2 7 7 15 5 5 7 6 7 6 6 6 6 9 13 9 4 5 4 7 1 0 3 7 6 5 5 3 4 6 2 9 10 10 8 2 3 6
19 7 9 7 3 3 6 4 4 4 3 3 4 6 6 6 4 5 4 5 14 7 10 7 1 3 6 6 4 2 3 4 4 3 6 5 6 3 1 5 6 5 7 7 3
8 4 6 11 9 3 5 3 5 9 5 4 4 8 4 5 5 6 4 3 2 4 11 8 4 7 7 5 3 2 1 1 5 3 3 6 6 4 2 5 8 11 9 3 3
3 2 3 4 4 4 3 3 4 5 10 10 5 6 5 4 4 3 2 1 6 5 4 5 5 3 3 4 3 2 3 2 6 5 5 7 7 5 7 6 9 10 4 4 1
2 3 6 6 8 4 2 3 4 3 3 6 3 4 6 4 3 4 5 3 6 1 3 3 3 3 3 4 3 3 7 8 4 2 5 2 2 2 8 13 10 5 2 2 6
1 1 2 4 3 4 1 2 4 7 7 7 11 3 3 5 16 15 11 11 6 10 5 5 6 4 4 4 3 4 5 4 2 2 4 5 5 6 5 9 6 3 1 1 2
Wind_Direction
25 21 14 4 356 352 345 338 329 317 310 310 323 330 318 290 303 309 316 349 56 102 92 38 354 333 318 28 110 135 60 0 302 20 342 62 88 76 86 87 76 88 95 123 118
22 20 16 9 358 350 345 336 326 315 308 301 298 301 298 292 301 305 290 304 150 142 57 14 1 338 248 47 138 96 97 229 204 265 95 91 112 119 96 90 87 94 106 123 120
18 17 15 13 2 350 345 336 328 316 312 303 294 294 290 305 333 17 7 156 146 123 3 352 8 21 107 219 196 153 185 202 270 120 141 105 81 111 116 101 131 127 125 129 132
13 13 13 11 7 355 346 339 330 320 311 308 303 297 295 300 177 26 124 121 113 48 2 359 347 57 16 226 203 201 231 186 211 156 98 113 139 86 132 149 139 135 138 136 125
6 8 9 8 7 1 350 345 335 328 315 318 316 297 270 295 331 89 166 115 44 360 15 18 42 28 2 285 324 193 231 189 177 151 121 125 116 132 141 141 144 139 138 129 116
360 1 3 5 3 0 357 348 340 327 311 317 323 244 236 293 107 100 127 106 69 16 351 8 7 343 330 313 88 321 7 126 170 181 134 119 133 123 170 154 153 156 149 142 130
354 354 356 359 359 355 352 343 335 324 304 303 300 263 253 261 166 184 167 101 282 340 319 314 344 349 327 335 339 310 40 358 162 189 126 136 261 184 166 166 161 164 156 149 137
348 348 349 351 353 348 343 338 332 328 336 314 294 269 247 184 214 240 255 298 249 250 5 335 301 308 263 311 13 44 49 19 284 152 158 161 253 172 170 168 166 168 165 156 148
344 342 343 344 346 346 339 349 338 319 319 304 288 247 259 234 226 227 253 273 168 225 255 276 304 33 57 75 13 7 237 250 307 199 135 119 242 203 181 179 171 178 172 164 159
338 338 338 340 340 346 350 331 330 299 344 299 250 285 257 281 204 194 200 225 249 270 277 252 319 50 31 74 203 232 353 280 236 256 153 147 224 241 191 192 184 186 179 175 174
334 333 333 337 337 343 1 6 359 319 310 266 266 265 289 133 194 204 206 208 264 289 121 327 69 229 232 197 173 170 222 272 293 63 113 177 200 227 204 204 192 189 185 183 180
327 328 328 333 333 328 347 15 22 304 296 279 263 257 258 262 283 260 216 197 119 287 303 14 240 226 218 186 167 59 26 315 316 7 88 150 258 340 267 242 206 188 188 185 192
325 323 323 325 328 298 325 15 347 342 262 286 245 234 233 231 236 252 196 195 186 289 190 166 256 144 178 164 98 33 120 9 64 345 32 61 334 359 320 324 182 191 180 186 211
330 330 320 320 315 309 316 313 332 335 33 276 228 223 190 189 219 217 198 195 90 153 353 221 305 169 161 141 124 162 210 138 74 52 241 48 265 303 328 353 96 156 171 184 177
336 335 323 313 301 301 309 303 325 350 330 244 191 159 165 165 149 177 190 185 183 176 86 261 322 158 115 188 123 203 171 37 115 126 93 275 81 266 348 17 316 175 162 115 125
337 336 319 304 283 293 268 343 18 46 257 308 159 153 122 192 171 141 166 173 122 149 91 211 264 212 192 153 106 104 77 44 48 64 11 258 124 284 193 205 228 231 191 109 127
333 332 318 288 272 266 291 343 53 162 320 280 199 165 171 173 163 158 165 158 163 109 224 339 234 248 149 139 29 72 58 351 359 9 222 274 103 241 276 218 197 187 179 160 265
332 336 326 312 263 232 226 60 178 236 257 308 337 104 188 153 214 182 126 193 227 97 116 160 322 183 189 167 178 163 146 150 196 211 270 315 260 259 297 190 202 174 175 207 259
335 348 18 349 235 196 168 142 195 212 285 5 336 149 242 208 170 144 196 200 195 169 165 154 248 282 217 149 129 183 144 172 105 15 45 269 301 327 279 261 202 203 207 210 54
336 342 11 353 198 168 109 205 221 222 15 4 311 8 31 326 192 164 186 210 218 186 151 208 125 237 185 103 44 143 155 76 17 150 242 288 268 228 208 230 236 234 221 271 163
339 342 12 44 126 167 152 227 247 301 25 359 353 298 253 244 213 210 209 250 202 137 115 131 116 254 116 205 180 57 134 56 116 138 169 210 258 214 204 215 218 228 223 189 146
350 343 3 181 63 70 138 251 343 340 339 271 227 222 238 270 229 218 215 210 189 142 152 166 134 149 207 56 243 185 201 145 132 223 219 155 273 276 227 220 232 213 153 122 146
336 300 357 16 67 5 325 329 356 334 326 327 298 249 249 239 250 223 213 337 162 146 159 184 0 77 352 358 7 132 123 126 115 78 197 143 255 340 127 146 168 143 119 126 159
338 346 343 52 46 55 351 329 336 317 248 334 263 323 309 236 245 211 182 37 143 126 140 111 121 153 183 194 157 178 225 130 124 122 207 222 265 264 161 134 115 121 117 119 192
342 318 7 325 345 346 289 287 343 12 336 349 357 2 308 311 318 234 152 92 31 125 76 111 135 142 149 136 144 172 271 244 179 206 175 258 203 256 190 155 132 122 132 175 205
2 1 347 305 307 325 328 5 320 338 261 300 240 294 342 48 345 297 342 178 180 247 88 5 156 112 156 181 152 214 266 273 258 177 236 161 65 92 95 110 108 125 157 21 16
289 290 303 299 350 328 241 338 339 349 284 272 304 214 301 277 324 294 289 280 247 155 149 121 131 115 199 136 81 305 244 217 51 338 223 164 185 122 85 86 75 44 348 343 21